Location: Unspecified
(48.5539°N, 71.6350°W)
Time: 18:28:57
(UTC-05:00)

ISS - Pass Details

Date: 28 January 2019
Orbit: 403 x 411 km, 51.6° (Epoch: 17 February)

Event Time Altitude Azimuth Distance (km) Brightness Sun altitude
Rises 16:06:25 0° 209° (SSW) 2,318 1.3 3.7°
Reaches altitude 10° 16:08:46 10° 194° (SSW) 1,464 -0.2 3.4°
Maximum altitude 16:11:23 22° 141° (SE) 948 -2.0 3.0°
Drops below altitude 10° 16:14:01 10° 88° (E) 1,475 -1.5 2.7°
Sets 16:16:23 0° 73° (ENE) 2,342 -0.6 2.3°
